Time,TemperatureF,DewpointF,PressureIn,WindDirection,WindDirectionDegrees,WindSpeedMPH,WindSpeedGustMPH,Humidity,HourlyPrecipIn,Conditions,Clouds,dailyrainin,SolarRadiationWatts/m^2,SoftwareType,DateUTC
2013-02-04 00:00:00,6.3,3.0,29.94,WNW,299,0.0,2.0,86,0.00,,,0.00,0.0,meteohub,2013-02-04 05:00:00,
2013-02-04 00:01:00,6.3,3.0,29.94,WNW,299,1.0,2.0,86,0.00,,,0.00,0.0,meteohub,2013-02-04 05:01:00,
2013-02-04 00:02:00,6.1,2.8,29.94,WNW,299,1.0,2.0,86,0.00,,,0.00,0.0,meteohub,2013-02-04 05:02:00,
2013-02-04 00:03:00,6.1,2.8,29.93,WNW,299,0.0,2.0,86,0.00,,,0.00,0.0,meteohub,2013-02-04 05:03:00,
2013-02-04 00:08:00,5.7,2.7,29.93,WNW,299,1.0,2.0,87,0.00,,,0.00,0.0,meteohub,2013-02-04 05:08:00,
2013-02-04 00:13:00,5.7,2.7,29.94,WNW,299,0.0,2.0,87,0.00,,,0.00,0.0,meteohub,2013-02-04 05:13:00,
2013-02-04 00:18:00,5.7,2.7,29.94,WNW,299,0.0,2.0,87,0.00,,,0.00,0.0,meteohub,2013-02-04 05:18:00,
2013-02-04 00:23:00,5.5,2.5,29.94,WSW,251,0.0,2.0,87,0.00,,,0.00,0.0,meteohub,2013-02-04 05:23:00,
2013-02-04 00:28:00,5.5,2.5,29.94,WSW,251,1.0,2.0,87,0.00,,,0.00,0.0,meteohub,2013-02-04 05:28:00,
2013-02-04 00:33:00,5.5,2.5,29.94,WNW,284,1.0,2.0,87,0.00,,,0.00,0.0,meteohub,2013-02-04 05:33:00,
2013-02-04 00:38:00,5.4,2.3,29.94,WNW,284,0.0,2.0,87,0.00,,,0.00,0.0,meteohub,2013-02-04 05:38:00,
2013-02-04 00:43:00,5.4,2.3,29.94,WNW,284,1.0,2.0,87,0.00,,,0.00,0.0,meteohub,2013-02-04 05:43:00,
2013-02-04 00:48:00,5.2,2.1,29.94,WNW,284,0.0,2.0,87,0.00,,,0.00,0.0,meteohub,2013-02-04 05:48:00,
2013-02-04 00:53:00,5.0,2.3,29.94,WNW,284,0.0,2.0,88,0.00,,,0.00,0.0,meteohub,2013-02-04 05:53:00,
2013-02-04 00:58:00,4.8,2.1,29.94,WNW,284,1.0,1.0,88,0.00,,,0.00,0.0,meteohub,2013-02-04 05:58:00,
2013-02-04 01:03:00,4.8,2.1,29.94,WNW,284,0.0,1.0,88,0.00,,,0.00,0.0,meteohub,2013-02-04 06:03:00,
2013-02-04 01:08:00,4.6,1.6,29.94,West,276,1.0,1.0,87,0.00,,,0.00,0.0,meteohub,2013-02-04 06:08:00,
2013-02-04 01:14:00,4.1,1.0,29.95,West,276,0.0,2.0,87,0.00,,,0.00,0.0,meteohub,2013-02-04 06:14:00,
2013-02-04 01:19:00,3.7,0.7,29.95,West,274,1.0,2.0,87,0.00,,,0.00,0.0,meteohub,2013-02-04 06:19:00,
2013-02-04 01:24:00,3.2,0.1,29.95,SW,233,1.0,2.0,87,0.00,,,0.00,0.0,meteohub,2013-02-04 06:24:00,
2013-02-04 01:29:00,2.7,-0.4,29.95,SW,233,1.0,2.0,87,0.00,,,0.00,0.0,meteohub,2013-02-04 06:29:00,
2013-02-04 01:34:00,2.3,-0.8,29.95,SW,233,1.0,2.0,87,0.00,,,0.00,0.0,meteohub,2013-02-04 06:34:00,
2013-02-04 01:39:00,2.1,-0.6,29.94,SW,233,2.0,2.0,88,0.00,,,0.00,0.0,meteohub,2013-02-04 06:39:00,
2013-02-04 01:44:00,2.1,-0.6,29.94,SW,234,1.0,2.0,88,0.00,,,0.00,0.0,meteohub,2013-02-04 06:44:00,
2013-02-04 01:49:00,2.1,-0.4,29.95,SW,234,1.0,2.0,89,0.00,,,0.00,0.0,meteohub,2013-02-04 06:49:00,
2013-02-04 01:54:00,2.1,-0.4,29.94,SW,234,0.0,2.0,89,0.00,,,0.00,0.0,meteohub,2013-02-04 06:54:00,
2013-02-04 01:59:00,2.1,-0.4,29.94,SW,234,0.0,2.0,89,0.00,,,0.00,0.0,meteohub,2013-02-04 06:59:00,
2013-02-04 02:04:00,2.1,-0.4,29.95,SW,234,0.0,2.0,89,0.00,,,0.00,0.0,meteohub,2013-02-04 07:04:00,
2013-02-04 02:09:00,1.9,-0.8,29.95,SW,234,1.0,2.0,88,0.00,,,0.00,0.0,meteohub,2013-02-04 07:09:00,
2013-02-04 02:14:00,1.8,-0.9,29.95,SW,234,1.0,1.0,88,0.00,,,0.00,0.0,meteohub,2013-02-04 07:14:00,
2013-02-04 02:19:00,1.2,-1.5,29.95,SW,234,1.0,2.0,88,0.00,,,0.00,0.0,meteohub,2013-02-04 07:19:00,
2013-02-04 02:24:00,1.0,-1.7,29.95,SW,234,1.0,2.0,88,0.00,,,0.00,0.0,meteohub,2013-02-04 07:24:00,
2013-02-04 02:29:00,1.0,-1.5,29.96,SW,234,0.0,2.0,89,0.00,,,0.00,0.0,meteohub,2013-02-04 07:29:00,
2013-02-04 02:34:00,0.9,-1.7,29.96,SW,234,1.0,2.0,89,0.00,,,0.00,0.0,meteohub,2013-02-04 07:34:00,
2013-02-04 02:39:00,0.9,-1.7,29.96,SW,234,1.0,2.0,89,0.00,,,0.00,0.0,meteohub,2013-02-04 07:39:00,
2013-02-04 02:44:00,0.9,-1.7,29.96,SW,234,0.0,1.0,89,0.00,,,0.00,0.0,meteohub,2013-02-04 07:44:00,
2013-02-04 02:49:00,0.9,-1.7,29.96,SW,234,0.0,1.0,89,0.00,,,0.00,0.0,meteohub,2013-02-04 07:49:00,
2013-02-04 02:54:00,0.9,-1.7,29.96,SW,234,1.0,1.0,89,0.00,,,0.00,0.0,meteohub,2013-02-04 07:54:00,
2013-02-04 02:59:00,0.9,-1.7,29.96,SW,234,0.0,1.0,89,0.00,,,0.00,0.0,meteohub,2013-02-04 07:59:00,
2013-02-04 03:04:00,0.9,-1.7,29.96,SW,234,0.0,1.0,89,0.00,,,0.00,0.0,meteohub,2013-02-04 08:04:00,
2013-02-04 03:09:00,0.9,-1.7,29.96,SW,234,0.0,1.0,89,0.00,,,0.00,0.0,meteohub,2013-02-04 08:09:00,
2013-02-04 03:14:00,0.7,-1.8,29.96,SW,234,1.0,1.0,89,0.00,,,0.00,0.0,meteohub,2013-02-04 08:14:00,
2013-02-04 03:19:00,0.9,-1.3,29.96,SW,234,1.0,1.0,90,0.00,,,0.00,0.0,meteohub,2013-02-04 08:19:00,
2013-02-04 03:24:00,1.2,-0.8,29.96,SW,234,0.0,1.0,91,0.00,,,0.00,0.0,meteohub,2013-02-04 08:24:00,
2013-02-04 03:29:00,1.8,-0.2,29.96,SW,234,1.0,1.0,91,0.00,,,0.00,0.0,meteohub,2013-02-04 08:29:00,
2013-02-04 03:34:00,1.9,0.0,29.96,SW,234,1.0,2.0,91,0.00,,,0.00,0.0,meteohub,2013-02-04 08:34:00,
2013-02-04 03:39:00,2.1,-0.2,29.96,SW,234,0.0,2.0,90,0.00,,,0.00,0.0,meteohub,2013-02-04 08:39:00,
2013-02-04 03:44:00,2.3,0.3,29.96,SW,234,0.0,2.0,91,0.00,,,0.00,0.0,meteohub,2013-02-04 08:44:00,
2013-02-04 03:49:00,2.5,0.5,29.95,SW,234,1.0,2.0,91,0.00,,,0.00,0.0,meteohub,2013-02-04 08:49:00,
2013-02-04 03:54:00,2.3,-0.2,29.96,SW,234,1.0,2.0,89,0.00,,,0.00,0.0,meteohub,2013-02-04 08:54:00,
2013-02-04 03:59:00,1.9,-0.6,29.96,SW,234,1.0,1.0,89,0.00,,,0.00,0.0,meteohub,2013-02-04 08:59:00,
2013-02-04 04:04:00,1.8,-0.8,29.96,SW,234,1.0,2.0,89,0.00,,,0.00,0.0,meteohub,2013-02-04 09:04:00,
2013-02-04 04:09:00,1.6,-1.1,29.95,SW,234,1.0,2.0,88,0.00,,,0.00,0.0,meteohub,2013-02-04 09:09:00,
2013-02-04 04:14:00,1.2,-1.3,29.96,SW,234,0.0,2.0,89,0.00,,,0.00,0.0,meteohub,2013-02-04 09:14:00,
2013-02-04 04:19:00,1.0,-1.5,29.96,SW,234,0.0,2.0,89,0.00,,,0.00,0.0,meteohub,2013-02-04 09:19:00,
2013-02-04 04:25:00,0.9,-1.8,29.96,SW,234,1.0,2.0,88,0.00,,,0.00,0.0,meteohub,2013-02-04 09:25:00,
2013-02-04 04:30:00,0.3,-2.6,29.95,SW,234,1.0,1.0,87,0.00,,,0.00,0.0,meteohub,2013-02-04 09:30:00,
2013-02-04 04:35:00,-0.2,-3.1,29.96,SW,234,1.0,1.0,87,0.00,,,0.00,0.0,meteohub,2013-02-04 09:35:00,
2013-02-04 04:40:00,-0.9,-4.2,29.96,NW,313,0.0,2.0,86,0.00,,,0.00,0.0,meteohub,2013-02-04 09:40:00,
2013-02-04 04:45:00,-1.1,-3.8,29.96,NW,313,0.0,2.0,88,0.00,,,0.00,0.0,meteohub,2013-02-04 09:45:00,
2013-02-04 04:50:00,-0.9,-3.5,29.96,NW,313,1.0,2.0,89,0.00,,,0.00,0.0,meteohub,2013-02-04 09:50:00,
2013-02-04 04:55:00,-0.9,-3.5,29.96,NW,313,0.0,1.0,89,0.00,,,0.00,0.0,meteohub,2013-02-04 09:55:00,
2013-02-04 05:00:00,-0.8,-2.9,29.96,NW,313,1.0,1.0,90,0.00,,,0.00,0.0,meteohub,2013-02-04 10:00:00,
2013-02-04 05:05:00,-0.9,-3.5,29.96,NW,313,0.0,1.0,89,0.00,,,0.00,0.0,meteohub,2013-02-04 10:05:00,
2013-02-04 05:10:00,-0.9,-3.5,29.96,NW,313,0.0,1.0,89,0.00,,,0.00,0.0,meteohub,2013-02-04 10:10:00,
2013-02-04 05:15:00,-0.9,-3.1,29.96,NW,313,0.0,1.0,90,0.00,,,0.00,0.0,meteohub,2013-02-04 10:15:00,
2013-02-04 05:20:00,-0.8,-2.9,29.96,NW,313,0.0,0.0,90,0.00,,,0.00,0.0,meteohub,2013-02-04 10:20:00,
2013-02-04 05:25:00,-0.4,-2.4,29.96,NW,313,1.0,0.0,91,0.00,,,0.00,0.0,meteohub,2013-02-04 10:25:00,
2013-02-04 05:30:00,-0.4,-2.6,29.96,NW,313,0.0,1.0,90,0.00,,,0.00,0.0,meteohub,2013-02-04 10:30:00,
2013-02-04 05:35:00,-0.2,-2.4,29.96,NW,313,0.0,1.0,90,0.00,,,0.00,0.0,meteohub,2013-02-04 10:35:00,
2013-02-04 05:40:00,-0.2,-2.4,29.96,NW,313,0.0,1.0,90,0.00,,,0.00,0.0,meteohub,2013-02-04 10:40:00,
2013-02-04 05:45:00,0.0,-2.2,29.96,NW,313,0.0,0.0,90,0.00,,,0.00,0.0,meteohub,2013-02-04 10:45:00,
2013-02-04 05:50:00,0.0,-2.2,29.96,NW,313,0.0,0.0,90,0.00,,,0.00,0.0,meteohub,2013-02-04 10:50:00,
2013-02-04 05:55:00,0.1,-2.0,29.96,NW,313,0.0,0.0,90,0.00,,,0.00,0.0,meteohub,2013-02-04 10:55:00,
2013-02-04 06:00:00,0.1,-2.0,29.96,NW,313,0.0,0.0,90,0.00,,,0.00,0.0,meteohub,2013-02-04 11:00:00,
2013-02-04 06:05:00,0.1,-2.0,29.96,NW,313,0.0,0.0,90,0.00,,,0.00,0.0,meteohub,2013-02-04 11:05:00,
2013-02-04 06:10:00,0.0,-2.2,29.96,NW,313,0.0,0.0,90,0.00,,,0.00,0.0,meteohub,2013-02-04 11:10:00,
2013-02-04 06:15:00,0.0,-2.2,29.96,NW,313,0.0,1.0,90,0.00,,,0.00,0.0,meteohub,2013-02-04 11:15:00,
2013-02-04 06:20:00,0.0,-2.6,29.96,NW,313,0.0,1.0,89,0.00,,,0.00,0.0,meteohub,2013-02-04 11:20:00,
2013-02-04 06:25:00,-0.2,-2.7,29.96,NW,313,1.0,1.0,89,0.00,,,0.00,0.0,meteohub,2013-02-04 11:25:00,
2013-02-04 06:30:00,-0.6,-3.3,29.96,NW,313,0.0,1.0,88,0.00,,,0.00,0.0,meteohub,2013-02-04 11:30:00,
2013-02-04 06:35:00,-0.4,-2.9,29.96,NW,313,0.0,2.0,89,0.00,,,0.00,0.0,meteohub,2013-02-04 11:35:00,
2013-02-04 06:40:00,-0.2,-2.4,29.96,NW,313,1.0,2.0,90,0.00,,,0.00,0.0,meteohub,2013-02-04 11:40:00,
2013-02-04 06:45:00,0.0,-2.2,29.96,NW,313,1.0,1.0,90,0.00,,,0.00,0.0,meteohub,2013-02-04 11:45:00,
2013-02-04 06:50:00,-0.2,-2.9,29.96,NW,313,1.0,1.0,88,0.00,,,0.00,0.0,meteohub,2013-02-04 11:50:00,
2013-02-04 06:55:00,-0.4,-2.9,29.97,WNW,286,1.0,2.0,89,0.00,,,0.00,0.0,meteohub,2013-02-04 11:55:00,
2013-02-04 07:00:00,0.0,-2.2,29.97,West,279,1.0,2.0,90,0.00,,,0.00,0.0,meteohub,2013-02-04 12:00:00,
2013-02-04 07:05:00,0.0,-2.6,29.97,West,278,1.0,2.0,89,0.00,,,0.00,0.0,meteohub,2013-02-04 12:05:00,
2013-02-04 07:10:00,0.0,-2.6,29.97,WSW,257,1.0,2.0,89,0.00,,,0.00,0.0,meteohub,2013-02-04 12:10:00,
2013-02-04 07:16:00,0.1,-2.0,29.97,SW,231,1.0,2.0,90,0.00,,,0.00,0.0,meteohub,2013-02-04 12:16:00,
2013-02-04 07:21:00,0.7,-1.5,29.97,SW,232,1.0,3.0,90,0.00,,,0.00,0.0,meteohub,2013-02-04 12:21:00,
2013-02-04 07:26:00,0.7,-1.5,29.97,SW,230,1.0,3.0,90,0.00,,,0.00,0.0,meteohub,2013-02-04 12:26:00,
2013-02-04 07:31:00,0.5,-2.0,29.97,SW,230,1.0,2.0,89,0.00,,,0.00,0.0,meteohub,2013-02-04 12:31:00,
2013-02-04 07:36:00,0.3,-2.2,29.97,SW,230,0.0,2.0,89,0.00,,,0.00,0.0,meteohub,2013-02-04 12:36:00,
2013-02-04 07:41:00,0.3,-2.2,29.97,SW,230,1.0,2.0,89,0.00,,,0.00,0.0,meteohub,2013-02-04 12:41:00,
2013-02-04 07:46:00,0.1,-2.4,29.97,SW,230,0.0,2.0,89,0.00,,,0.00,0.0,meteohub,2013-02-04 12:46:00,
2013-02-04 07:51:00,0.1,-2.6,29.97,SW,230,0.0,1.0,88,0.00,,,0.00,0.0,meteohub,2013-02-04 12:51:00,
2013-02-04 07:56:00,-0.2,-3.1,29.97,SW,230,0.0,1.0,87,0.00,,,0.00,0.0,meteohub,2013-02-04 12:56:00,
2013-02-04 08:01:00,-0.8,-3.6,29.97,SW,230,0.0,1.0,87,0.00,,,0.00,7.0,meteohub,2013-02-04 13:01:00,
2013-02-04 08:06:00,-0.9,-3.8,29.97,SW,230,0.0,1.0,87,0.00,,,0.00,9.0,meteohub,2013-02-04 13:06:00,
2013-02-04 08:11:00,-0.6,-3.1,29.98,SW,229,1.0,1.0,89,0.00,,,0.00,12.0,meteohub,2013-02-04 13:11:00,
2013-02-04 08:16:00,-0.4,-2.9,29.97,SW,229,1.0,2.0,89,0.00,,,0.00,14.0,meteohub,2013-02-04 13:16:00,
2013-02-04 08:21:00,0.1,-2.0,29.98,SW,231,1.0,2.0,90,0.00,,,0.00,26.0,meteohub,2013-02-04 13:21:00,
2013-02-04 08:26:00,0.5,-1.7,29.98,SW,234,1.0,2.0,90,0.00,,,0.00,58.0,meteohub,2013-02-04 13:26:00,
2013-02-04 08:31:00,0.9,-1.3,29.98,SW,227,1.0,2.0,90,0.00,,,0.00,49.0,meteohub,2013-02-04 13:31:00,
2013-02-04 08:36:00,1.0,-1.1,29.99,SW,223,0.0,2.0,90,0.00,,,0.00,46.0,meteohub,2013-02-04 13:36:00,
2013-02-04 08:41:00,1.4,-0.8,29.99,SW,226,0.0,2.0,90,0.00,,,0.00,42.0,meteohub,2013-02-04 13:41:00,
2013-02-04 08:46:00,1.8,-0.4,29.99,SW,227,1.0,2.0,90,0.00,,,0.00,81.0,meteohub,2013-02-04 13:46:00,
2013-02-04 08:51:00,1.9,-0.4,29.99,SW,226,2.0,2.0,90,0.00,,,0.00,121.0,meteohub,2013-02-04 13:51:00,
2013-02-04 08:56:00,2.3,0.0,29.99,SW,226,1.0,2.0,90,0.00,,,0.00,98.0,meteohub,2013-02-04 13:56:00,
2013-02-04 09:01:00,2.7,0.3,29.99,SW,226,0.0,2.0,90,0.00,,,0.00,241.0,meteohub,2013-02-04 14:01:00,
2013-02-04 09:06:00,3.2,0.9,29.99,SW,224,1.0,2.0,90,0.00,,,0.00,353.0,meteohub,2013-02-04 14:06:00,
2013-02-04 09:11:00,3.9,1.6,29.99,SW,224,1.0,2.0,90,0.00,,,0.00,348.0,meteohub,2013-02-04 14:11:00,
2013-02-04 09:16:00,4.6,2.3,29.99,SW,223,2.0,2.0,90,0.00,,,0.00,394.0,meteohub,2013-02-04 14:16:00,
2013-02-04 09:21:00,5.2,2.8,29.99,SW,227,0.0,2.0,90,0.00,,,0.00,413.0,meteohub,2013-02-04 14:21:00,
2013-02-04 09:26:00,5.5,3.2,29.99,SW,227,0.0,2.0,90,0.00,,,0.00,434.0,meteohub,2013-02-04 14:26:00,
2013-02-04 09:31:00,5.5,3.0,29.99,SW,227,0.0,2.0,89,0.00,,,0.00,454.0,meteohub,2013-02-04 14:31:00,
2013-02-04 09:36:00,6.3,3.7,29.99,SW,227,1.0,1.0,89,0.00,,,0.00,461.0,meteohub,2013-02-04 14:36:00,
2013-02-04 09:41:00,6.6,4.1,29.99,SW,227,1.0,1.0,89,0.00,,,0.00,492.0,meteohub,2013-02-04 14:41:00,
2013-02-04 09:46:00,6.8,4.3,29.99,SW,236,1.0,1.0,89,0.00,,,0.00,510.0,meteohub,2013-02-04 14:46:00,
2013-02-04 09:51:00,7.3,4.8,29.99,WSW,238,1.0,3.0,89,0.00,,,0.00,524.0,meteohub,2013-02-04 14:51:00,
2013-02-04 09:56:00,7.7,4.8,29.99,SW,225,0.0,3.0,88,0.00,,,0.00,536.0,meteohub,2013-02-04 14:56:00,
2013-02-04 10:01:00,8.1,5.2,29.99,SW,225,1.0,3.0,88,0.00,,,0.00,547.0,meteohub,2013-02-04 15:01:00,
2013-02-04 10:07:00,8.1,5.2,29.99,SSW,207,3.0,3.0,88,0.00,,,0.00,559.0,meteohub,2013-02-04 15:07:00,
2013-02-04 10:12:00,7.5,4.6,29.99,SW,223,3.0,4.0,88,0.00,,,0.00,571.0,meteohub,2013-02-04 15:12:00,
2013-02-04 10:17:00,7.5,4.5,29.99,SW,221,3.0,4.0,87,0.00,,,0.00,582.0,meteohub,2013-02-04 15:17:00,
2013-02-04 10:22:00,7.5,4.5,29.99,SSW,213,0.0,4.0,87,0.00,,,0.00,592.0,meteohub,2013-02-04 15:22:00,
2013-02-04 10:27:00,8.4,5.5,29.99,SSW,192,2.0,4.0,88,0.00,,,0.00,603.0,meteohub,2013-02-04 15:27:00,
2013-02-04 10:32:00,9.0,5.7,29.99,SSW,207,1.0,4.0,86,0.00,,,0.00,615.0,meteohub,2013-02-04 15:32:00,
2013-02-04 10:37:00,9.1,6.1,29.99,SSW,196,0.0,3.0,87,0.00,,,0.00,628.0,meteohub,2013-02-04 15:37:00,
2013-02-04 10:42:00,9.3,5.9,29.99,South,190,2.0,3.0,86,0.00,,,0.00,635.0,meteohub,2013-02-04 15:42:00,
2013-02-04 10:47:00,10.0,6.6,29.98,WSW,238,2.0,3.0,86,0.00,,,0.00,642.0,meteohub,2013-02-04 15:47:00,
2013-02-04 10:52:00,9.7,6.1,29.98,SSW,212,3.0,3.0,85,0.00,,,0.00,652.0,meteohub,2013-02-04 15:52:00,
2013-02-04 10:57:00,9.9,6.3,29.98,SW,226,1.0,4.0,85,0.00,,,0.00,663.0,meteohub,2013-02-04 15:57:00,
2013-02-04 11:02:00,11.3,8.2,29.98,SW,227,0.0,4.0,87,0.00,,,0.00,673.0,meteohub,2013-02-04 16:02:00,
2013-02-04 11:07:00,11.7,8.1,29.98,South,191,0.0,4.0,85,0.00,,,0.00,682.0,meteohub,2013-02-04 16:07:00,
2013-02-04 11:12:00,10.9,6.8,29.98,WSW,250,2.0,3.0,83,0.00,,,0.00,689.0,meteohub,2013-02-04 16:12:00,
2013-02-04 11:17:00,10.9,7.0,29.98,SSW,197,1.0,3.0,84,0.00,,,0.00,698.0,meteohub,2013-02-04 16:17:00,
2013-02-04 11:22:00,12.4,8.8,29.98,SW,231,1.0,3.0,85,0.00,,,0.00,708.0,meteohub,2013-02-04 16:22:00,
2013-02-04 11:27:00,12.9,8.8,29.98,South,175,1.0,3.0,83,0.00,,,0.00,717.0,meteohub,2013-02-04 16:27:00,
2013-02-04 11:32:00,13.5,9.3,29.98,WSW,257,1.0,3.0,83,0.00,,,0.00,728.0,meteohub,2013-02-04 16:32:00,
2013-02-04 11:37:00,12.9,8.4,29.98,South,184,1.0,3.0,82,0.00,,,0.00,737.0,meteohub,2013-02-04 16:37:00,
2013-02-04 11:42:00,14.0,9.9,29.98,South,179,2.0,3.0,83,0.00,,,0.00,745.0,meteohub,2013-02-04 16:42:00,
2013-02-04 11:47:00,14.2,9.7,29.98,South,173,2.0,4.0,82,0.00,,,0.00,754.0,meteohub,2013-02-04 16:47:00,
2013-02-04 11:52:00,13.8,9.1,29.98,SW,219,1.0,4.0,81,0.00,,,0.00,766.0,meteohub,2013-02-04 16:52:00,
2013-02-04 11:57:00,15.1,11.1,29.98,SSW,195,1.0,4.0,84,0.00,,,0.00,773.0,meteohub,2013-02-04 16:57:00,
2013-02-04 12:02:00,15.3,10.4,29.98,SSW,211,2.0,4.0,81,0.00,,,0.00,782.0,meteohub,2013-02-04 17:02:00,
2013-02-04 12:07:00,15.3,10.8,29.98,SSW,202,0.0,4.0,82,0.00,,,0.00,789.0,meteohub,2013-02-04 17:07:00,
2013-02-04 12:12:00,15.3,9.9,29.98,West,269,1.0,4.0,79,0.00,,,0.00,795.0,meteohub,2013-02-04 17:12:00,
2013-02-04 12:17:00,16.0,10.9,29.97,SW,225,2.0,4.0,80,0.00,,,0.00,805.0,meteohub,2013-02-04 17:17:00,
2013-02-04 12:22:00,15.1,9.5,29.97,WSW,249,0.0,4.0,78,0.00,,,0.00,807.0,meteohub,2013-02-04 17:22:00,
2013-02-04 12:27:00,16.5,11.1,29.97,WSW,244,0.0,4.0,79,0.00,,,0.00,823.0,meteohub,2013-02-04 17:27:00,
2013-02-04 12:32:00,16.2,9.7,29.97,WNW,303,1.0,4.0,75,0.00,,,0.00,833.0,meteohub,2013-02-04 17:32:00,
2013-02-04 12:37:00,16.5,11.1,29.97,NW,325,0.0,4.0,79,0.00,,,0.00,882.0,meteohub,2013-02-04 17:37:00,
2013-02-04 12:42:00,17.1,11.1,29.97,NE,36,3.0,3.0,77,0.00,,,0.00,895.0,meteohub,2013-02-04 17:42:00,
2013-02-04 12:47:00,16.2,9.9,29.96,NNE,22,1.0,4.0,76,0.00,,,0.00,926.0,meteohub,2013-02-04 17:47:00,
2013-02-04 12:52:00,17.2,11.3,29.96,NW,314,1.0,4.0,77,0.00,,,0.00,981.0,meteohub,2013-02-04 17:52:00,
2013-02-04 12:57:00,17.2,10.9,29.96,NNE,28,1.0,4.0,76,0.00,,,0.00,976.0,meteohub,2013-02-04 17:57:00,
2013-02-04 13:02:00,18.0,11.3,29.96,NNE,13,1.0,3.0,75,0.00,,,0.00,984.0,meteohub,2013-02-04 18:02:00,
2013-02-04 13:07:00,17.1,10.2,29.96,NNE,20,1.0,4.0,74,0.00,,,0.00,972.0,meteohub,2013-02-04 18:07:00,
2013-02-04 13:12:00,18.1,10.9,29.96,SSE,163,1.0,5.0,73,0.00,,,0.00,1020.0,meteohub,2013-02-04 18:12:00,
2013-02-04 13:17:00,18.3,11.5,29.96,South,170,1.0,5.0,74,0.00,,,0.00,1005.0,meteohub,2013-02-04 18:17:00,
2013-02-04 13:22:00,18.7,11.8,29.96,SSW,212,2.0,5.0,74,0.00,,,0.00,489.0,meteohub,2013-02-04 18:22:00,
2013-02-04 13:27:00,17.6,9.9,29.96,SSW,209,2.0,6.0,71,0.00,,,0.00,800.0,meteohub,2013-02-04 18:27:00,
2013-02-04 13:32:00,18.1,11.8,29.95,South,182,3.0,6.0,76,0.00,,,0.00,745.0,meteohub,2013-02-04 18:32:00,
2013-02-04 13:37:00,18.5,10.9,29.95,SE,131,1.0,6.0,72,0.00,,,0.00,937.0,meteohub,2013-02-04 18:37:00,
2013-02-04 13:42:00,18.1,10.0,29.95,East,99,2.0,6.0,70,0.00,,,0.00,661.0,meteohub,2013-02-04 18:42:00,
2013-02-04 13:47:00,18.5,10.9,29.95,SSE,153,3.0,5.0,72,0.00,,,0.00,860.0,meteohub,2013-02-04 18:47:00,
2013-02-04 13:52:00,18.5,10.4,29.95,SE,130,4.0,6.0,70,0.00,,,0.00,671.0,meteohub,2013-02-04 18:52:00,
2013-02-04 13:57:00,19.2,11.7,29.95,South,185,3.0,6.0,72,0.00,,,0.00,619.0,meteohub,2013-02-04 18:57:00,
2013-02-04 14:02:00,17.8,10.2,29.95,SSE,155,2.0,6.0,72,0.00,,,0.00,517.0,meteohub,2013-02-04 19:02:00,
2013-02-04 14:08:00,18.1,10.9,29.95,South,189,1.0,5.0,73,0.00,,,0.00,383.0,meteohub,2013-02-04 19:08:00,
2013-02-04 14:13:00,18.3,10.2,29.94,West,265,2.0,5.0,70,0.00,,,0.00,424.0,meteohub,2013-02-04 19:13:00,
2013-02-04 14:18:00,17.6,11.1,29.94,SW,223,3.0,4.0,75,0.00,,,0.00,396.0,meteohub,2013-02-04 19:18:00,
2013-02-04 14:23:00,18.0,10.2,29.95,SW,230,3.0,4.0,71,0.00,,,0.00,397.0,meteohub,2013-02-04 19:23:00,
2013-02-04 14:28:00,17.8,10.0,29.95,NW,309,2.0,5.0,71,0.00,,,0.00,364.0,meteohub,2013-02-04 19:28:00,
2013-02-04 14:33:00,17.8,10.2,29.95,North,350,1.0,5.0,72,0.00,,,0.00,341.0,meteohub,2013-02-04 19:33:00,
2013-02-04 14:38:00,17.2,10.0,29.94,NNE,15,3.0,5.0,73,0.00,,,0.00,315.0,meteohub,2013-02-04 19:38:00,
2013-02-04 14:43:00,17.1,10.6,29.94,North,355,1.0,4.0,75,0.00,,,0.00,313.0,meteohub,2013-02-04 19:43:00,
2013-02-04 14:48:00,16.9,10.0,29.94,North,355,1.0,4.0,74,0.00,,,0.00,279.0,meteohub,2013-02-04 19:48:00,
2013-02-04 14:53:00,16.9,9.7,29.94,North,11,1.0,5.0,73,0.00,,,0.00,308.0,meteohub,2013-02-04 19:53:00,
2013-02-04 14:58:00,17.4,10.6,29.94,NNE,22,1.0,5.0,74,0.00,,,0.00,278.0,meteohub,2013-02-04 19:58:00,
2013-02-04 15:03:00,17.2,9.9,29.94,NNW,342,2.0,5.0,72,0.00,,,0.00,301.0,meteohub,2013-02-04 20:03:00,
2013-02-04 15:08:00,17.1,9.3,29.94,NW,319,1.0,5.0,71,0.00,,,0.00,290.0,meteohub,2013-02-04 20:08:00,
2013-02-04 15:13:00,18.0,10.8,29.94,NW,318,0.0,5.0,73,0.00,,,0.00,622.0,meteohub,2013-02-04 20:13:00,
2013-02-04 15:18:00,18.7,9.9,29.94,NNW,329,3.0,5.0,68,0.00,,,0.00,554.0,meteohub,2013-02-04 20:18:00,
2013-02-04 15:23:00,18.1,10.0,29.94,North,11,2.0,5.0,70,0.00,,,0.00,533.0,meteohub,2013-02-04 20:23:00,
2013-02-04 15:28:00,17.4,9.7,29.94,NW,309,1.0,5.0,71,0.00,,,0.00,246.0,meteohub,2013-02-04 20:28:00,
2013-02-04 15:33:00,17.2,8.8,29.94,WNW,302,2.0,5.0,69,0.00,,,0.00,439.0,meteohub,2013-02-04 20:33:00,
2013-02-04 15:38:00,17.6,9.9,29.94,West,272,1.0,3.0,71,0.00,,,0.00,185.0,meteohub,2013-02-04 20:38:00,
2013-02-04 15:43:00,17.2,8.2,29.94,WNW,291,3.0,3.0,67,0.00,,,0.00,183.0,meteohub,2013-02-04 20:43:00,
2013-02-04 15:48:00,16.7,7.3,29.94,NW,325,3.0,3.0,66,0.00,,,0.00,151.0,meteohub,2013-02-04 20:48:00,
2013-02-04 15:53:00,16.5,7.5,29.94,WNW,300,1.0,5.0,67,0.00,,,0.00,195.0,meteohub,2013-02-04 20:53:00,
2013-02-04 15:58:00,17.1,8.6,29.94,NW,315,1.0,5.0,69,0.00,,,0.00,429.0,meteohub,2013-02-04 20:58:00,
2013-02-04 16:03:00,18.0,8.6,29.94,WNW,297,2.0,5.0,66,0.00,,,0.00,381.0,meteohub,2013-02-04 21:03:00,
2013-02-04 16:08:00,17.8,9.0,29.94,NW,306,1.0,4.0,68,0.00,,,0.00,257.0,meteohub,2013-02-04 21:08:00,
2013-02-04 16:13:00,17.4,8.6,29.94,NW,320,3.0,4.0,68,0.00,,,0.00,318.0,meteohub,2013-02-04 21:13:00,
2013-02-04 16:18:00,16.9,7.2,29.94,NW,311,1.0,4.0,65,0.00,,,0.00,297.0,meteohub,2013-02-04 21:18:00,
2013-02-04 16:23:00,16.9,7.2,29.94,NW,311,1.0,4.0,65,0.00,,,0.00,272.0,meteohub,2013-02-04 21:23:00,
2013-02-04 16:28:00,17.1,8.1,29.93,NW,312,1.0,4.0,67,0.00,,,0.00,248.0,meteohub,2013-02-04 21:28:00,
2013-02-04 16:33:00,16.9,7.2,29.93,NW,313,0.0,3.0,65,0.00,,,0.00,223.0,meteohub,2013-02-04 21:33:00,
2013-02-04 16:38:00,16.5,8.4,29.93,NW,315,0.0,3.0,70,0.00,,,0.00,197.0,meteohub,2013-02-04 21:38:00,
2013-02-04 16:43:00,16.3,7.7,29.93,NW,314,1.0,3.0,68,0.00,,,0.00,172.0,meteohub,2013-02-04 21:43:00,
2013-02-04 16:49:00,16.2,7.7,29.93,WNW,294,1.0,3.0,69,0.00,,,0.00,151.0,meteohub,2013-02-04 21:49:00,
2013-02-04 16:54:00,15.8,8.1,29.93,NW,308,1.0,3.0,71,0.00,,,0.00,104.0,meteohub,2013-02-04 21:54:00,
2013-02-04 16:59:00,15.4,7.7,29.93,WNW,302,2.0,3.0,71,0.00,,,0.00,42.0,meteohub,2013-02-04 21:59:00,
2013-02-04 17:04:00,15.4,7.7,29.93,WNW,301,2.0,3.0,71,0.00,,,0.00,26.0,meteohub,2013-02-04 22:04:00,
2013-02-04 17:09:00,15.1,7.7,29.93,WNW,301,2.0,3.0,72,0.00,,,0.00,23.0,meteohub,2013-02-04 22:09:00,
2013-02-04 17:14:00,14.7,7.9,29.93,WNW,301,1.0,3.0,74,0.00,,,0.00,19.0,meteohub,2013-02-04 22:14:00,
2013-02-04 17:19:00,14.5,8.4,29.93,WNW,300,1.0,3.0,76,0.00,,,0.00,18.0,meteohub,2013-02-04 22:19:00,
2013-02-04 17:24:00,14.2,7.2,29.93,WNW,300,1.0,3.0,73,0.00,,,0.00,16.0,meteohub,2013-02-04 22:24:00,
2013-02-04 17:29:00,14.0,8.4,29.93,WNW,300,0.0,2.0,78,0.00,,,0.00,14.0,meteohub,2013-02-04 22:29:00,
2013-02-04 17:34:00,13.6,7.7,29.93,WNW,300,1.0,2.0,77,0.00,,,0.00,11.0,meteohub,2013-02-04 22:34:00,
2013-02-04 17:39:00,13.3,7.7,29.92,WNW,300,1.0,2.0,78,0.00,,,0.00,7.0,meteohub,2013-02-04 22:39:00,
2013-02-04 17:44:00,12.7,7.5,29.93,WNW,300,0.0,2.0,79,0.00,,,0.00,5.0,meteohub,2013-02-04 22:44:00,
2013-02-04 17:49:00,12.6,7.9,29.92,WNW,300,0.0,2.0,81,0.00,,,0.00,0.0,meteohub,2013-02-04 22:49:00,
2013-02-04 17:54:00,12.0,7.3,29.92,WNW,300,0.0,1.0,81,0.00,,,0.00,0.0,meteohub,2013-02-04 22:54:00,
2013-02-04 17:59:00,11.7,6.6,29.92,WNW,300,0.0,1.0,80,0.00,,,0.00,0.0,meteohub,2013-02-04 22:59:00,
2013-02-04 18:04:00,11.3,6.1,29.92,WNW,300,0.0,1.0,79,0.00,,,0.00,0.0,meteohub,2013-02-04 23:04:00,
2013-02-04 18:09:00,10.9,6.3,29.92,WNW,300,0.0,1.0,81,0.00,,,0.00,0.0,meteohub,2013-02-04 23:09:00,
2013-02-04 18:14:00,10.8,6.4,29.92,WNW,300,0.0,1.0,82,0.00,,,0.00,0.0,meteohub,2013-02-04 23:14:00,
2013-02-04 18:19:00,10.4,6.1,29.92,WNW,300,0.0,1.0,82,0.00,,,0.00,0.0,meteohub,2013-02-04 23:19:00,
2013-02-04 18:24:00,10.2,5.9,29.92,WNW,300,0.0,0.0,82,0.00,,,0.00,0.0,meteohub,2013-02-04 23:24:00,
2013-02-04 18:29:00,10.2,6.1,29.92,WNW,300,0.0,0.0,83,0.00,,,0.00,0.0,meteohub,2013-02-04 23:29:00,
2013-02-04 18:34:00,10.2,6.1,29.92,WNW,300,0.0,0.0,83,0.00,,,0.00,0.0,meteohub,2013-02-04 23:34:00,
2013-02-04 18:39:00,10.2,5.9,29.92,WNW,300,0.0,0.0,82,0.00,,,0.00,0.0,meteohub,2013-02-04 23:39:00,
2013-02-04 18:44:00,10.0,5.4,29.92,WNW,300,0.0,0.0,81,0.00,,,0.00,0.0,meteohub,2013-02-04 23:44:00,
2013-02-04 18:49:00,9.9,5.0,29.92,WNW,300,0.0,0.0,80,0.00,,,0.00,0.0,meteohub,2013-02-04 23:49:00,
2013-02-04 18:54:00,9.7,5.5,29.93,WNW,300,0.0,0.0,83,0.00,,,0.00,0.0,meteohub,2013-02-04 23:54:00,
2013-02-04 18:59:00,9.3,5.2,29.93,WNW,300,0.0,0.0,83,0.00,,,0.00,0.0,meteohub,2013-02-04 23:59:00,
2013-02-04 19:04:00,9.3,5.2,29.93,WNW,300,0.0,0.0,83,0.00,,,0.00,0.0,meteohub,2013-02-05 00:04:00,
2013-02-04 19:09:00,9.3,5.2,29.93,WNW,300,0.0,0.0,83,0.00,,,0.00,0.0,meteohub,2013-02-05 00:09:00,
2013-02-04 19:14:00,9.3,5.5,29.93,WNW,300,0.0,0.0,84,0.00,,,0.00,0.0,meteohub,2013-02-05 00:14:00,
2013-02-04 19:19:00,9.3,5.5,29.93,WNW,300,0.0,0.0,84,0.00,,,0.00,0.0,meteohub,2013-02-05 00:19:00,
2013-02-04 19:24:00,9.3,5.5,29.94,WNW,300,0.0,0.0,84,0.00,,,0.00,0.0,meteohub,2013-02-05 00:24:00,
2013-02-04 19:29:00,9.3,5.2,29.94,WNW,300,0.0,0.0,83,0.00,,,0.00,0.0,meteohub,2013-02-05 00:29:00,
2013-02-04 19:34:00,9.1,5.0,29.94,WNW,300,0.0,0.0,83,0.00,,,0.00,0.0,meteohub,2013-02-05 00:34:00,
2013-02-04 19:39:00,9.0,4.6,29.94,WNW,300,0.0,0.0,82,0.00,,,0.00,0.0,meteohub,2013-02-05 00:39:00,
2013-02-04 19:45:00,8.8,4.6,29.94,WNW,300,1.0,1.0,83,0.00,,,0.00,0.0,meteohub,2013-02-05 00:45:00,
2013-02-04 19:50:00,8.8,4.6,29.94,WNW,300,0.0,1.0,83,0.00,,,0.00,0.0,meteohub,2013-02-05 00:50:00,
2013-02-04 19:55:00,8.8,5.0,29.94,WNW,300,0.0,1.0,84,0.00,,,0.00,0.0,meteohub,2013-02-05 00:55:00,
2013-02-04 20:00:00,8.8,5.0,29.94,WNW,300,0.0,1.0,84,0.00,,,0.00,0.0,meteohub,2013-02-05 01:00:00,
2013-02-04 20:05:00,9.0,5.2,29.94,WNW,296,2.0,2.0,84,0.00,,,0.00,0.0,meteohub,2013-02-05 01:05:00,
2013-02-04 20:10:00,8.8,5.0,29.95,SW,221,2.0,3.0,84,0.00,,,0.00,0.0,meteohub,2013-02-05 01:10:00,
2013-02-04 20:15:00,9.0,4.8,29.95,SW,221,1.0,3.0,83,0.00,,,0.00,0.0,meteohub,2013-02-05 01:15:00,
2013-02-04 20:20:00,9.1,5.0,29.95,SW,221,1.0,3.0,83,0.00,,,0.00,0.0,meteohub,2013-02-05 01:20:00,
2013-02-04 20:25:00,9.1,5.0,29.95,SW,221,1.0,2.0,83,0.00,,,0.00,0.0,meteohub,2013-02-05 01:25:00,
2013-02-04 20:30:00,9.0,4.8,29.95,SW,223,1.0,2.0,83,0.00,,,0.00,0.0,meteohub,2013-02-05 01:30:00,
2013-02-04 20:35:00,9.1,5.0,29.95,SW,234,0.0,3.0,83,0.00,,,0.00,0.0,meteohub,2013-02-05 01:35:00,
2013-02-04 20:40:00,9.1,5.0,29.95,SW,234,0.0,3.0,83,0.00,,,0.00,0.0,meteohub,2013-02-05 01:40:00,
2013-02-04 20:45:00,9.1,5.4,29.95,SW,234,0.0,3.0,84,0.00,,,0.00,0.0,meteohub,2013-02-05 01:45:00,
2013-02-04 20:51:00,9.0,5.2,29.95,SW,234,0.0,2.0,84,0.00,,,0.00,0.0,meteohub,2013-02-05 01:51:00,
2013-02-04 20:56:00,8.8,5.0,29.95,SW,234,0.0,2.0,84,0.00,,,0.00,0.0,meteohub,2013-02-05 01:56:00,
2013-02-04 21:01:00,8.6,4.8,29.95,SW,234,0.0,2.0,84,0.00,,,0.00,0.0,meteohub,2013-02-05 02:01:00,
2013-02-04 21:06:00,8.6,5.0,29.95,SW,234,0.0,1.0,85,0.00,,,0.00,0.0,meteohub,2013-02-05 02:06:00,
2013-02-04 21:11:00,8.6,5.0,29.95,SW,234,0.0,1.0,85,0.00,,,0.00,0.0,meteohub,2013-02-05 02:11:00,
2013-02-04 21:16:00,8.8,5.0,29.96,SW,234,0.0,1.0,84,0.00,,,0.00,0.0,meteohub,2013-02-05 02:16:00,
2013-02-04 21:21:00,9.0,5.2,29.95,SW,234,0.0,1.0,84,0.00,,,0.00,0.0,meteohub,2013-02-05 02:21:00,
2013-02-04 21:26:00,9.1,5.0,29.95,SW,234,1.0,1.0,83,0.00,,,0.00,0.0,meteohub,2013-02-05 02:26:00,
2013-02-04 21:31:00,9.1,5.0,29.95,SW,234,1.0,2.0,83,0.00,,,0.00,0.0,meteohub,2013-02-05 02:31:00,
2013-02-04 21:36:00,9.1,5.0,29.95,SW,234,0.0,2.0,83,0.00,,,0.00,0.0,meteohub,2013-02-05 02:36:00,
2013-02-04 21:41:00,9.1,5.0,29.95,SW,234,0.0,2.0,83,0.00,,,0.00,0.0,meteohub,2013-02-05 02:41:00,
2013-02-04 21:46:00,9.1,5.4,29.95,SW,234,0.0,1.0,84,0.00,,,0.00,0.0,meteohub,2013-02-05 02:46:00,
2013-02-04 21:51:00,9.1,5.4,29.95,SW,234,0.0,1.0,84,0.00,,,0.00,0.0,meteohub,2013-02-05 02:51:00,
2013-02-04 21:56:00,9.0,5.2,29.94,SW,234,0.0,0.0,84,0.00,,,0.00,0.0,meteohub,2013-02-05 02:56:00,
2013-02-04 22:01:00,9.0,5.2,29.94,SW,234,0.0,0.0,84,0.00,,,0.00,0.0,meteohub,2013-02-05 03:01:00,
2013-02-04 22:06:00,8.4,4.6,29.94,SW,234,0.0,0.0,84,0.00,,,0.00,0.0,meteohub,2013-02-05 03:06:00,
2013-02-04 22:11:00,8.1,4.3,29.94,SW,234,0.0,0.0,84,0.00,,,0.00,0.0,meteohub,2013-02-05 03:11:00,
2013-02-04 22:16:00,7.7,3.9,29.94,SW,234,0.0,0.0,84,0.00,,,0.00,0.0,meteohub,2013-02-05 03:16:00,
2013-02-04 22:21:00,7.3,3.7,29.94,SW,234,0.0,1.0,85,0.00,,,0.00,0.0,meteohub,2013-02-05 03:21:00,
2013-02-04 22:27:00,7.2,3.9,29.94,SW,234,0.0,1.0,86,0.00,,,0.00,0.0,meteohub,2013-02-05 03:27:00,
2013-02-04 22:32:00,7.0,3.7,29.94,SW,234,0.0,1.0,86,0.00,,,0.00,0.0,meteohub,2013-02-05 03:32:00,
2013-02-04 22:37:00,7.0,3.7,29.94,SW,234,0.0,1.0,86,0.00,,,0.00,0.0,meteohub,2013-02-05 03:37:00,
2013-02-04 22:42:00,6.6,3.4,29.94,SW,234,0.0,1.0,86,0.00,,,0.00,0.0,meteohub,2013-02-05 03:42:00,
2013-02-04 22:47:00,6.3,3.0,29.94,SW,234,0.0,1.0,86,0.00,,,0.00,0.0,meteohub,2013-02-05 03:47:00,
2013-02-04 22:52:00,6.1,3.0,29.93,SW,234,0.0,1.0,87,0.00,,,0.00,0.0,meteohub,2013-02-05 03:52:00,
2013-02-04 22:57:00,6.3,3.6,29.93,SW,234,0.0,1.0,88,0.00,,,0.00,0.0,meteohub,2013-02-05 03:57:00,
2013-02-04 23:02:00,6.1,3.0,29.94,SW,234,1.0,2.0,87,0.00,,,0.00,0.0,meteohub,2013-02-05 04:02:00,
2013-02-04 23:07:00,6.1,3.4,29.94,SW,234,0.0,2.0,88,0.00,,,0.00,0.0,meteohub,2013-02-05 04:07:00,
2013-02-04 23:12:00,6.3,3.6,29.94,WSW,249,2.0,3.0,88,0.00,,,0.00,0.0,meteohub,2013-02-05 04:12:00,
2013-02-04 23:17:00,6.4,3.7,29.94,WSW,237,1.0,3.0,88,0.00,,,0.00,0.0,meteohub,2013-02-05 04:17:00,
2013-02-04 23:22:00,7.0,4.1,29.94,SW,234,1.0,3.0,88,0.00,,,0.00,0.0,meteohub,2013-02-05 04:22:00,
2013-02-04 23:27:00,7.0,3.9,29.93,SW,234,1.0,3.0,87,0.00,,,0.00,0.0,meteohub,2013-02-05 04:27:00,
2013-02-04 23:32:00,6.4,3.2,29.93,SW,226,1.0,3.0,86,0.00,,,0.00,0.0,meteohub,2013-02-05 04:32:00,
2013-02-04 23:37:00,6.3,3.2,29.93,SW,223,0.0,3.0,87,0.00,,,0.00,0.0,meteohub,2013-02-05 04:37:00,
2013-02-04 23:42:00,6.1,3.4,29.93,SW,223,0.0,2.0,88,0.00,,,0.00,0.0,meteohub,2013-02-05 04:42:00,
2013-02-04 23:47:00,6.1,3.6,29.92,SW,223,0.0,2.0,89,0.00,,,0.00,0.0,meteohub,2013-02-05 04:47:00,
2013-02-04 23:52:00,5.9,3.4,29.92,SW,223,0.0,1.0,89,0.00,,,0.00,0.0,meteohub,2013-02-05 04:52:00,
2013-02-04 23:57:00,5.5,2.8,29.92,SW,223,0.0,1.0,88,0.00,,,0.00,0.0,meteohub,2013-02-05 04:57:00,